EW7112 Weather Reports


Display with metric or nautical units.
time (UTC)temp
F
wind
direction
speed
MPH
gust
MPH
rain 1hr
in
rain 24hr
in
rain mn
in
humidity
%
barometer
mb
20260903053030 83 91 4.0 10.0 0.00 0.00 0.00 66 991.1
20260903051527 84 104 2.0 9.0 0.00 0.00 0.00 65 990.9
20260903050023 85 74 4.0 9.0 0.00 0.00 0.00 64 990.9
20260903044522 85 107 4.0 10.0 0.00 0.00 0.00 63 990.7
20260903043021 85 103 4.0 10.0 0.00 0.00 0.00 62 990.7
20260903041526 86 118 4.0 9.0 0.00 0.00 0.00 61 990.8
20260903040021 86 150 0.0 7.0 0.00 0.00 0.00 59 990.7
20260903034520 87 100 5.0 8.0 0.00 0.00 0.00 58 990.8
20260903033120 88 130 3.0 11.0 0.00 0.00 0.00 57 990.8
20260903031523 89 91 5.0 11.0 0.00 0.00 0.00 56 990.6
20260903030031 90 75 5.0 9.0 0.00 0.00 0.00 54 990.4
20260903024518 90 76 4.0 11.0 0.00 0.00 0.00 53 990.2
20260903023018 91 129 5.0 12.0 0.00 0.00 0.00 50 990.0
20260903021518 92 68 5.0 9.0 0.00 0.00 0.00 48 989.8
20260903020017 92 98 3.0 11.0 0.00 0.00 0.00 48 989.6
20260903014516 93 108 4.0 14.0 0.00 0.00 0.00 48 989.5
20260903013027 93 108 3.0 10.0 0.00 0.00 0.00 48 989.2
20260903011516 93 58 4.0 10.0 0.00 0.00 0.00 48 989.0
20260903010027 94 88 5.0 10.0 0.00 0.00 0.00 48 988.9
20260903004513 94 102 4.0 11.0 0.00 0.00 0.00 47 989.0
20260903003012 95 120 4.0 9.0 0.00 0.00 0.00 47 988.9
20260903001511 96 134 5.0 11.0 0.00 0.00 0.00 45 988.8
20260903000011 97 120 5.0 13.0 0.00 0.00 0.00 44 988.8
20260902234508 99 131 2.0 8.0 0.00 0.00 0.00 39 988.6
20260902233006 99 83 2.0 10.0 0.00 0.00 0.00 37 988.5
20260902231504 100 114 4.0 9.0 0.00 0.00 0.00 37 988.5
20260902230003 100 106 3.0 8.0 0.00 0.00 0.00 36 988.4
20260902224607 100 69 2.0 9.0 0.00 0.00 0.00 37 988.6
20260902223059 100 130 4.0 8.0 0.00 0.00 0.00 36 988.6
20260902221618 100 4 1.0 6.0 0.00 0.00 0.00 38 988.7
20260902220101 100 157 2.0 5.0 0.00 0.00 0.00 37 988.8
20260902214601 101 97 1.0 10.0 0.00 0.00 0.00 37 988.9
20260902213053 99 1 4.0 11.0 0.00 0.00 0.00 39 989.3
20260902211553 100 81 0.0 5.0 0.00 0.00 0.00 38 989.4
20260902210050 100 67 3.0 9.0 0.00 0.00 0.00 39 989.5
20260902204549 99 84 5.0 11.0 0.00 0.00 0.00 39 989.7
20260902203046 99 4 4.0 8.0 0.00 0.00 0.00 40 989.9
20260902201550 98 32 3.0 7.0 0.00 0.00 0.00 40 990.1
20260902200040 99 92 2.0 10.0 0.00 0.00 0.00 42 990.3
20260902194537 98 359 3.0 8.0 0.00 0.00 0.00 43 990.7
20260902193043 97 3 1.0 6.0 0.00 0.00 0.00 43 990.9
20260902191533 98 123 2.0 6.0 0.00 0.00 0.00 44 991.2
20260902190030 97 96 3.0 9.0 0.00 0.00 0.00 44 991.3
20260902184527 97 103 3.0 11.0 0.00 0.00 0.00 44 991.5
20260902183029 97 139 3.0 8.0 0.00 0.00 0.00 44 991.7
20260902181521 96 123 4.0 8.0 0.00 0.00 0.00 45 992.1
20260902180017 94 114 2.0 8.0 0.00 0.00 0.00 48 992.4
20260902174514 95 147 3.0 9.0 0.00 0.00 0.00 49 992.7
20260902173015 94 359 3.0 6.0 0.00 0.00 0.00 48 993.0
20260902171505 93 101 3.0 6.0 0.00 0.00 0.00 50 993.2
20260902170004 92 109 2.0 7.0 0.00 0.00 0.00 53 993.3
20260902164500 92 237 1.0 5.0 0.00 0.00 0.00 51 993.5
20260902163102 91 141 2.0 7.0 0.00 0.00 0.00 54 993.6
20260902161554 91 134 2.0 4.0 0.00 0.00 0.00 55 993.7
20260902160059 90 78 2.0 8.0 0.00 0.00 0.00 56 993.8
20260902154550 90 360 1.0 6.0 0.00 0.00 0.00 56 993.7
20260902153053 89 160 0.0 5.0 0.00 0.00 0.00 58 993.7
20260902151545 88 115 1.0 4.0 0.00 0.00 0.00 60 993.7
20260902150042 87 238 1.0 4.0 0.00 0.00 0.00 62 993.7
20260902144540 86 322 1.0 3.0 0.00 0.00 0.00 62 993.6
20260902143037 85 258 2.0 5.0 0.00 0.00 0.00 63 993.8
20260902141534 85 184 2.0 4.0 0.00 0.00 0.00 65 993.7
20260902140032 84 126 2.0 6.0 0.00 0.00 0.00 65 993.7
20260902134535 84 78 2.0 6.0 0.00 0.00 0.00 66 993.7
20260902133030 82 122 2.0 5.0 0.00 0.00 0.00 69 993.6
20260902131538 81 136 0.0 3.0 0.00 0.00 0.00 70 993.5
20260902130025 81 136 0.0 3.0 0.00 0.00 0.00 71 993.3
20260902124519 81 69 1.0 3.0 0.00 0.00 0.00 71 993.1
20260902123016 81 117 0.0 4.0 0.00 0.00 0.00 72 993.1
20260902121514 81 113 1.0 3.0 0.00 0.00 0.00 71 992.9
20260902120010 81 127 0.0 2.0 0.00 0.00 0.00 70 992.9
20260902114513 81 127 0.0 1.0 0.00 0.00 0.00 70 992.7
20260902113006 81 127 0.0 3.0 0.00 0.00 0.00 70 992.8
20260902111506 81 104 1.0 3.0 0.00 0.00 0.00 69 992.9
20260902110007 82 160 1.0 2.0 0.00 0.00 0.00 68 993.0
20260902104504 82 160 0.0 0.0 0.00 0.00 0.00 68 992.8
20260902103001 82 160 0.0 0.0 0.00 0.00 0.00 67 992.8
20260902101603 82 160 0.0 0.0 0.00 0.00 0.00 66 992.8
20260902100059 83 160 0.0 1.0 0.00 0.00 0.00 66 992.8
20260902094557 83 160 0.0 2.0 0.00 0.00 0.00 66 992.7
20260902093101 84 231 0.0 2.0 0.00 0.00 0.00 65 992.7
20260902091553 84 131 0.0 0.0 0.00 0.00 0.00 63 992.7
20260902090052 84 131 0.0 1.0 0.00 0.00 0.00 62 992.7
20260902084552 85 139 1.0 4.0 0.00 0.00 0.00 62 992.7
20260902083050 85 104 1.0 4.0 0.00 0.00 0.00 61 992.8
20260902081547 85 110 1.0 4.0 0.00 0.00 0.00 62 992.8
20260902080046 85 214 0.0 3.0 0.00 0.00 0.00 62 992.8
20260902074554 86 230 0.0 7.0 0.00 0.00 0.00 61 992.7
20260902073042 86 124 1.0 4.0 0.00 0.00 0.00 60 992.8
20260902071541 86 124 1.0 3.0 0.00 0.00 0.00 60 992.8
20260902070039 86 79 1.0 5.0 0.00 0.00 0.00 59 992.9
20260902064543 87 103 2.0 7.0 0.00 0.00 0.00 59 992.9
20260902063038 87 166 3.0 9.0 0.00 0.00 0.00 58 992.6
20260902061553 87 197 2.0 11.0 0.00 0.00 0.00 58 992.7
20260902060037 88 94 4.0 8.0 0.00 0.00 0.00 57 992.4
20260902054529 88 92 2.0 5.0 0.00 0.00 0.00 57 992.3